Location: Ford County Road and Bridge Department
(37.7686°N, 99.9762°W)
Time: 14:56:14
(UTC+00:00)

Cosmos 2227 Rocket - Pass Details

Date: 18 January 2020
Orbit: 841 x 843 km, 71.0° (Epoch: 23 February)

Event Time Altitude Azimuth Distance (km) Brightness Sun altitude
Exits shadow 11:22:19 48° 19° (NNE) 1,085 2.7 -29.5°
Maximum altitude 11:23:30 59° 65° (ENE) 969 2.6 -29.3°
Drops below altitude 10° 11:29:03 10° 145° (SE) 2,450 5.1 -28.2°
Sets 11:31:31 0° 149° (SSE) 3,381 5.8 -27.7°
